Skip Page Navigation
NASA JPL Caltech
NASA Logo - Jet Propulsion Laboratory + View the NASA Portal
+ Near-Earth Object (NEO) Program
Search JPL
JPL Home Earth Solar System Stars & Galaxies Technology
JPL Solar System Dynamics
BODIES ORBITS EPHEMERIDES TOOLS PHYSICAL DATA DISCOVERY FAQ SITE MAP
JPL Small-Body Database Browser
Search: [ help ]  
252399 (2001 TX44)
Classification: Aten [NEO, PHA]          SPK-ID: 2252399
Ephemeris | Orbit Diagram | Orbital Elements | Physical Parameters | Discovery Circumstances | Close-Approach Data ]

[ hide orbit diagram ]
Orbit Diagram
Note: Make sure you have Java enabled on your browser to see the applet. This applet is provided as a 3D orbit visualization tool. The applet was implemented using 2-body methods, and hence should not be used for determining accurate long-term trajectories (over several years or decades) or planetary encounter circumstances. For accurate long-term ephemerides, please instead use our Horizons system.
Orbit Viewer

Additional Notes: the orbits shown in the applet are color coded. The planets are white lines, and the asteroid/comet is a blue line. The bright white line indicates the portion of the orbit that is above the ecliptic plane, and the darker portion is below the ecliptic plane. Likewise for the asteroid/comet orbit, the light blue indicates the portion above the ecliptic plane, and the dark blue the portion below the ecliptic plane.

Orbit Viewer applet originally written and kindly provided by Osamu Ajiki (AstroArts), and further modified by Ron Baalke (JPL).


Orbital Elements at Epoch 2456400.5 (2013-Apr-18.0) TDB
Reference: JPL 23 (heliocentric ecliptic J2000)
 Element Value Uncertainty (1-sigma)   Units 
e .5459302904208112 2.5553e-07  
a .8747586546027625 6.1292e-09 AU
q .3972014082473583 2.2312e-07 AU
i 15.20735207114535 2.766e-05 deg
node 57.81983175700255 4.437e-05 deg
peri 135.9956738272089 4.4894e-05 deg
M 242.7224824985678 4.0879e-05 deg
tp 2456497.851592993332
(2013-Jul-24.35159299)
3.4248e-05 JED
period 298.8345441160247
0.82
3.1408e-06
8.599e-09
d
yr
n 1.204680004665817 1.2661e-08 deg/d
Q 1.352315900958167 9.4754e-09 AU
  Orbit Determination Parameters
   # obs. used (total)      129  
   data-arc span      3352 days (9.18 yr)  
   first obs. used      2001-10-11  
   last obs. used      2010-12-15  
   planetary ephem.      DE405  
   SB-pert. ephem.      SB405-CPV-2  
   condition code      0  
   fit RMS      .66893  
   data source      ORB  
   producer      Otto Matic  
   solution date      2013-Apr-29 15:40:59  

Additional Information
 Earth MOID = .00882845 AU 
 T_jup = 6.611 
[ show covariance matrix ]

Ephemeris | Orbit Diagram | Orbital Elements | Physical Parameters | Discovery Circumstances | Close-Approach Data ]

Physical Parameter Table
Parameter Symbol Value Units Sigma Reference Notes
absolute magnitude H 18.783 mag .72054 23 autocmod 2.5c

252399 (2001 TX44)          Discovered 2001-Oct-11 by LINEAR at Socorro (704)
Reference: 20101128/Numbers.arcLast Updated: 2010-12-06

[ show close-approach data ]
Ephemeris | Orbit Diagram | Orbital Elements | Physical Parameters | Discovery Circumstances | Close-Approach Data ]
ABOUT SSD CREDITS/AWARDS PRIVACY/COPYRIGHT GLOSSARY LINKS
FirstGov 2013-Jun-20 01:32 UT
(server date/time)  
NASA Home Page
Site Manager:   Donald K. Yeomans
Webmaster  Alan B. Chamberlin